Flag Weather past 2 weeks in Hayward, California, U.S.A.

Now
59 °F

Sunny.


Feels Like: 58 °F
Forecast: 44 / 61 °F
Wind: 7 mph from Northwest

Location: Hayward Air Terminal

Current Time: Nov 28, 2014 at 3:31:03 PM

Latest Report: Nov 28, 2014 at 2:54 PM


Visibility: 10 mi

Pressure: 29.94 "Hg

Humidity: 75%

Dew point: 51 °F

Location of HaywardLocation

Historic Weather in Hayward — Graph

°F

Hayward temperature yesterday

Maximum temperature yesterday: 61 °F (at 10:54 AM)
Minimum temperature yesterday: 44 °F (at 5:54 AM)
Average temperature yesterday: 52 °F

Past Weeks' High & Low Weather Summary

 TemperatureHumidityPressure
High68 °F (Nov 17, 12:54 PM)100% (Nov 13, 5:54 PM)30.49 "Hg (Nov 13, 5:54 PM)
Low43 °F (Nov 25, 6:54 AM)12% (Nov 16, 1:54 PM)29.95 "Hg (Nov 28, 1:54 PM)
Average56 °F73%30.19 "Hg
* Reported Nov 13 1:54 PM — Nov 28 1:54 PM, Hayward, Weather by CustomWeather, © 2014

Note: Actual official high and low records may vary slightly from our data, if they occured in-between our weather recording intervals... More about our weather records

Advertising

Hayward weather history for previous 24 hours

 ConditionsComfort  
Time TempWeatherWind HumidityBarometerVisibility
1:54 PM
Nov 28
58 °FSunny.7 mph78%29.95 "Hg7 mi
12:54 PM57 °FSunny.No wind81%29.97 "Hg10 mi
11:54 AM62 °FSunny.No wind65%30.01 "Hg10 mi
10:54 AM58 °FSunny.No wind75%30.04 "Hg5 mi
9:54 AM55 °FOvercast.6 mph80%30.07 "Hg3 mi
8:54 AM49 °FFog.8 mph97%30.06 "Hg3 mi
7:54 AM51 °FFog.5 mph89%30.05 "Hg3 mi
6:54 AM51 °FOvercast.5 mph83%30.06 "Hg5 mi
5:54 AM50 °FFog.No wind86%30.05 "Hg5 mi
4:54 AM47 °FFog.3 mph93%30.03 "Hg4 mi
3:54 AM43 °FFog.No wind100%30.05 "Hg4 mi
2:54 AM46 °FFog.5 mph93%30.07 "Hg6 mi
1:54 AM46 °FFog.No wind93%30.08 "Hg6 mi
12:54 AM48 °FClear.5 mph86%30.08 "Hg7 mi
11:54 PM
Nov 27
49 °FClear.No wind86%30.10 "Hg8 mi
10:54 PM45 °FClear.No wind100%30.10 "Hg7 mi
9:54 PM46 °FClear.No wind100%30.09 "Hg8 mi
8:54 PM49 °FClear.3 mph97%30.09 "Hg9 mi
7:54 PM50 °FClear.6 mph96%30.09 "Hg9 mi
6:54 PM52 °FClear.No wind86%30.08 "Hg8 mi
5:54 PM53 °FClear.No wind80%30.08 "Hg10 mi
4:54 PM57 °FClear.No wind67%30.09 "Hg9 mi
3:54 PM59 °FSunny.No wind67%30.09 "Hg8 mi
Weather by CustomWeather, © 2014

See weather overviewHow to use our weather pages